CST,Max TemperatureF,Mean TemperatureF,Min TemperatureF,Max Dew PointF,MeanDew PointF,Min DewpointF,Max Humidity, Mean Humidity, Min Humidity, Max Sea Level PressureIn, Mean Sea Level PressureIn, Min Sea Level PressureIn, Max VisibilityMiles, Mean VisibilityMiles, Min VisibilityMiles, Max Wind SpeedMPH, Mean Wind SpeedMPH, Max Gust SpeedMPH,PrecipitationIn, CloudCover, Events, WindDirDegrees
2012-11-1,46,39,32,31,24,14,76,54,38,29.98,29.89,29.85,10,10,10,15,6,24,0.00,7,,331
2012-11-2,45,36,26,27,24,22,96,73,42,30.22,30.11,30.00,10,10,10,8,1,,0.00,0,,10
2012-11-3,43,34,24,26,24,23,96,73,51,30.29,30.25,30.22,10,10,10,8,3,,0.00,5,,42
2012-11-4,43,32,20,26,23,18,96,78,49,30.31,30.26,30.21,10,10,8,6,0,,0.00,0,,70
2012-11-5,41,30,18,26,22,15,96,80,53,30.28,30.22,30.12,10,9,7,6,0,,0.00,0,,80
2012-11-6,36,28,21,36,33,19,100,97,85,30.11,29.92,29.84,9,2,1,10,3,,0.06,8,Rain-Snow,160
2012-11-7,38,32,26,37,33,27,100,98,86,30.17,30.08,29.91,10,3,0,7,0,,0.01,7,Fog,290
2012-11-8,50,38,26,40,32,27,100,90,56,30.17,30.12,30.03,10,5,0,14,1,,0.00,3,Fog,196
2012-11-9,46,38,29,43,37,29,100,90,71,30.10,30.07,30.03,8,5,2,12,3,,0.00,7,,62
2012-11-10,65,54,42,54,48,41,100,83,60,30.06,29.85,29.71,10,6,2,17,9,22,0.00,5,Rain,113
2012-11-11,62,47,30,57,49,27,100,90,59,29.89,29.71,29.62,10,6,1,17,9,26,0.77,7,Rain-Thunderstorm,229
2012-11-12,29,26,24,24,17,13,81,70,60,30.32,30.07,29.92,10,9,2,21,15,26,0.00,8,Snow,265
2012-11-13,37,28,19,25,19,15,92,72,45,30.47,30.41,30.29,10,10,10,10,4,,0.00,2,,256
2012-11-14,47,37,27,29,27,23,92,69,48,30.45,30.37,30.31,10,10,10,12,3,,0.00,2,,172
2012-11-15,54,40,27,31,29,26,96,72,39,30.38,30.30,30.24,10,10,10,13,2,17,0.00,1,,208
2012-11-16,41,34,27,34,29,24,100,82,70,30.52,30.48,30.39,10,10,8,10,2,,0.00,5,,71
2012-11-17,54,42,29,36,34,29,100,93,49,30.51,30.47,30.42,10,4,0,8,1,,0.00,5,Fog,163
2012-11-18,55,40,26,34,31,26,100,75,39,30.42,30.35,30.27,10,7,2,10,2,,0.00,0,,155
2012-11-19,48,40,32,42,37,32,97,81,63,30.27,30.17,30.08,10,8,4,8,0,,0.00,4,Rain,40
2012-11-20,56,44,29,42,38,29,100,90,55,30.17,30.11,30.07,10,5,0,8,0,,0.00,2,Fog,290
2012-11-21,55,42,28,50,36,28,100,92,57,30.17,30.09,29.95,10,4,0,10,1,,0.00,5,Fog,183
2012-11-22,63,50,36,45,40,27,100,68,46,29.94,29.75,29.63,10,10,6,24,7,33,0.00,2,,226
2012-11-23,34,29,23,26,17,13,81,66,55,30.25,30.01,29.78,10,9,3,32,22,40,0.00,8,Snow,302
2012-11-24,30,25,20,19,13,10,69,60,45,30.28,30.14,29.90,10,10,10,13,7,22,0.00,4,,304
2012-11-25,36,30,24,20,19,12,75,64,49,30.12,29.93,29.83,10,10,7,16,6,22,0.00,5,,297
2012-11-26,27,19,9,20,11,4,80,64,44,30.40,30.28,30.13,10,10,10,15,4,20,0.00,3,,328
2012-11-27,32,19,6,13,8,3,87,62,40,30.40,30.29,30.19,10,10,10,14,3,,0.00,3,,219
2012-11-28,36,26,15,21,17,11,88,71,50,30.37,30.28,30.21,10,10,10,13,2,,0.00,1,,261
2012-11-29,43,32,20,29,25,19,96,79,54,30.20,30.16,30.09,10,10,7,14,3,18,0.00,2,,56
2012-11-30,34,32,29,34,31,28,100,95,92,30.22,30.18,30.14,10,6,2,14,10,,0.00,8,,46